GPS BIII-1 (PRN 04) (43873 NORAD) Tracking and Keplerian Element Data

This shows tracking and keplerian element data for the satellite.

Feedback or suggestion? Click here.




ElementValue
Catalog43873
NameGPS BIII-1 (PRN 04)
Epoch Orbit822
Epoch Day22.60127427
Epoch Year2020
RAAN184.5021
Inclination55.0028
Eccentricity0.0006069
Argument of Perigee223.199
Mean Anonmoly86.3879
Mean Motion2.00557221
Decay Rate3.3E-07
L11 43873U 18109A 20022.60127427 .00000033 00000-0 00000-0 0 9995
L22 43873 55.0028 184.5021 0006069 223.1990 86.3879 2.00557221 8222

Live tracking and technical data element details for GPS BIII-1 (PRN 04) (NORAD 43873). GPS BIII-1 (PRN 04) can be tracked NOW for your location showing map with azimuth and elevation plus other details from your city location.

Track the satellite on the map from your city or location and see movement details for azimuth, elevation, latitude, longitude, range, height, and movement on the map or in text.







IsCatalogInMostPopularTable: catalog: 43873, numindb: 645
Update: records affected: 1



GetName: 43873 GPS BIII-1 (PRN 04)

Hit Count: updated at: Thu, 23 Jan 2020 17:57:08 GMT